N5CSU Weather Reports


time (UTC)temp
C
wind
direction
speed
KPH
gust
KPH
rain 1hr
cm
rain 24hr
cm
rain mn
cm
humidity
%
barometer
mb
20260507040514 15 183 0.0 0.0 0.00 0.00 0.00 80 1018.0
20260507040009 15 196 0.0 0.0 0.00 0.00 0.00 79 1017.8
20260507035506 15 188 0.0 0.0 0.00 0.00 0.00 80 1017.8
20260507035002 15 182 0.0 0.0 0.00 0.00 0.00 80 1017.7
20260507034459 15 192 0.0 0.0 0.00 0.00 0.00 80 1017.9
20260507033957 15 177 0.0 0.0 0.00 0.00 0.00 80 1017.9
20260507033456 15 193 0.0 0.0 0.00 0.00 0.00 80 1017.9
20260507032952 15 199 0.0 0.0 0.00 0.00 0.00 79 1017.9
20260507032449 15 196 0.0 0.0 0.00 0.00 0.00 79 1017.6
20260507031945 15 202 0.0 0.0 0.00 0.00 0.00 79 1017.6
20260507031441 15 199 0.0 1.6 0.00 0.00 0.00 80 1017.4
20260507030938 15 224 1.6 1.6 0.00 0.00 0.00 81 1017.5
20260507030436 15 184 0.0 0.0 0.00 0.00 0.00 81 1017.3
20260507025933 15 187 0.0 0.0 0.00 0.00 0.00 81 1017.3
20260507025430 15 187 0.0 0.0 0.00 0.00 0.00 81 1017.1
20260507024928 15 204 0.0 1.6 0.00 0.00 0.00 81 1017.0
20260507024425 15 187 0.0 0.0 0.00 0.00 0.00 80 1017.1
20260507023920 15 195 0.0 0.0 0.00 0.00 0.00 81 1016.9
20260507023418 15 178 0.0 0.0 0.00 0.00 0.00 81 1016.8
20260507022915 15 178 0.0 0.0 0.00 0.00 0.00 81 1016.7
20260507022412 15 186 0.0 0.0 0.00 0.00 0.00 82 1016.8
20260507021907 15 161 0.0 0.0 0.00 0.00 0.00 82 1016.8
20260507021404 15 184 0.0 0.0 0.00 0.00 0.00 82 1016.6
20260507020901 15 125 0.0 0.0 0.00 0.00 0.00 83 1016.5
20260507020357 15 190 0.0 0.0 0.00 0.00 0.00 83 1016.3
20260507015854 15 176 0.0 0.0 0.00 0.00 0.00 84 1016.0
20260507015352 15 173 0.0 0.0 0.00 0.00 0.00 84 1016.1
20260507014849 15 170 0.0 0.0 0.00 0.00 0.00 84 1016.0
20260507014345 15 183 0.0 0.0 0.00 0.00 0.00 84 1015.6
20260507013842 15 171 0.0 0.0 0.00 0.00 0.00 84 1015.5
20260507013339 15 168 0.0 0.0 0.00 0.00 0.00 84 1015.6
20260507012836 15 159 0.0 0.0 0.00 0.00 0.00 84 1015.4
20260507012332 15 191 0.0 0.0 0.00 0.00 0.00 84 1015.4
20260507011829 15 188 0.0 0.0 0.00 0.00 0.00 84 1015.3
20260507011326 15 193 0.0 0.0 0.00 0.00 0.00 84 1015.2
20260507010825 15 185 0.0 0.0 0.00 0.00 0.00 84 1015.3
20260507010321 15 140 0.0 1.6 0.00 0.00 0.00 84 1015.1
20260507005820 15 192 0.0 0.0 0.00 0.00 0.00 84 1014.9
20260507005316 15 174 0.0 0.0 0.00 0.00 0.00 84 1015.1
20260507004812 15 102 0.0 1.6 0.00 0.00 0.00 84 1015.0
20260507004310 15 164 0.0 0.0 0.00 0.00 0.00 84 1014.9
20260507003807 15 33 0.0 0.0 0.00 0.00 0.00 83 1014.9
20260507003301 15 33 0.0 0.0 0.00 0.00 0.00 83 1014.9
20260507002758 15 175 0.0 0.0 0.00 0.00 0.00 83 1015.0
20260507002253 15 185 0.0 0.0 0.00 0.00 0.00 83 1014.8
20260507001751 15 149 0.0 0.0 0.00 0.00 0.00 83 1014.7
20260507001249 15 163 0.0 0.0 0.00 0.00 0.00 82 1014.8
20260507000745 15 156 0.0 0.0 0.00 0.00 0.00 82 1014.6
20260507000241 15 199 0.0 0.0 0.00 0.00 0.00 82 1014.6
20260506235738 15 8 0.0 0.0 0.00 0.00 0.00 81 1014.6
20260506235232 16 8 0.0 0.0 0.00 0.00 0.00 81 1014.3
20260506234729 16 151 0.0 1.6 0.00 0.00 0.00 81 1014.4
20260506234227 16 61 0.0 1.6 0.00 0.00 0.00 81 1014.5
20260506233719 16 115 0.0 0.0 0.00 0.00 0.00 80 1014.5
20260506233215 16 172 0.0 1.6 0.00 0.00 0.00 81 1014.4
20260506232711 16 173 0.0 0.0 0.00 0.00 0.00 81 1014.4
20260506232206 16 167 0.0 0.0 0.00 0.00 0.00 80 1014.5
20260506231703 16 168 0.0 0.0 0.00 0.00 0.00 80 1014.1
20260506231202 16 173 0.0 0.0 0.00 0.00 0.00 79 1014.1
20260506230658 16 195 0.0 0.0 0.00 0.00 0.00 80 1014.3
20260506230155 16 187 0.0 0.0 0.00 0.00 0.00 80 1014.1
20260506225651 16 195 0.0 0.0 0.00 0.00 0.00 80 1014.0
20260506225149 16 173 0.0 0.0 0.00 0.00 0.00 80 1014.0
20260506224645 16 186 0.0 0.0 0.00 0.00 0.00 80 1014.1
20260506224142 16 147 0.0 0.0 0.00 0.00 0.00 80 1013.9
20260506223638 16 174 0.0 0.0 0.00 0.00 0.00 80 1013.9
20260506223134 16 174 0.0 0.0 0.00 0.00 0.00 79 1014.0
20260506222631 16 167 0.0 0.0 0.00 0.00 0.00 80 1013.9
20260506222127 16 179 0.0 0.0 0.00 0.00 0.00 81 1014.0
20260506221625 16 195 0.0 0.0 0.00 0.00 0.00 81 1013.9
20260506221123 16 201 0.0 0.0 0.00 0.00 0.00 81 1014.0
20260506220619 16 183 0.0 0.0 0.00 0.00 0.00 80 1013.7
20260506220114 16 170 0.0 0.0 0.00 0.00 0.00 80 1013.5
20260506215612 16 185 0.0 0.0 0.00 0.00 0.00 81 1013.6
20260506215107 16 188 0.0 0.0 0.00 0.00 0.00 81 1013.2
20260506214604 16 180 0.0 0.0 0.00 0.00 0.00 81 1013.5
20260506214101 16 179 0.0 0.0 0.00 0.00 0.00 81 1013.6
20260506213559 16 185 0.0 0.0 0.00 0.00 0.00 80 1013.6
20260506213051 16 175 0.0 0.0 0.00 0.00 0.00 80 1013.8
20260506212548 16 165 0.0 0.0 0.00 0.00 0.00 79 1013.7
20260506212043 16 171 0.0 0.0 0.00 0.00 0.00 80 1013.6
20260506211539 16 192 0.0 0.0 0.00 0.00 0.00 80 1013.7
20260506211036 16 192 0.0 0.0 0.00 0.00 0.00 80 1013.9
20260506210533 16 179 0.0 0.0 0.00 0.00 0.00 79 1013.7
20260506210030 16 176 0.0 0.0 0.00 0.00 0.00 80 1013.9
20260506205526 16 175 0.0 0.0 0.00 0.00 0.00 79 1013.8
20260506205021 16 176 0.0 0.0 0.00 0.00 0.00 81 1013.9
20260506204520 16 178 0.0 0.0 0.00 0.00 0.00 80 1014.3
20260506204016 16 192 0.0 0.0 0.00 0.00 0.00 80 1014.3
20260506203515 16 172 0.0 0.0 0.00 0.00 0.00 79 1014.2
20260506203010 16 182 0.0 0.0 0.00 0.00 0.00 80 1014.2
20260506202508 16 181 0.0 0.0 0.00 0.00 0.00 78 1014.1
20260506202003 16 208 0.0 0.0 0.00 0.00 0.00 80 1014.3
20260506201502 15 184 0.0 0.0 0.00 0.00 0.00 82 1014.2
20260506200952 15 193 0.0 0.0 0.00 0.00 0.00 83 1014.8
20260506200448 15 192 0.0 0.0 0.00 0.00 0.00 81 1014.4
20260506195945 15 179 0.0 0.0 0.00 0.00 0.00 82 1014.8
20260506195442 15 187 0.0 0.0 0.00 0.00 0.00 80 1014.9
20260506194938 15 187 0.0 0.0 0.00 0.00 0.00 82 1014.7
20260506194436 15 199 0.0 0.0 0.00 0.00 0.00 81 1014.3
20260506193932 15 180 0.0 0.0 0.00 0.00 0.00 81 1014.6
20260506193430 15 169 0.0 0.0 0.00 0.00 0.00 83 1014.5
20260506192926 15 196 0.0 0.0 0.00 0.00 0.00 85 1014.5
20260506192423 14 179 0.0 0.0 0.00 0.00 0.00 85 1014.7
20260506191920 14 179 0.0 1.6 0.00 0.00 0.00 85 1015.0
20260506191416 13 195 0.0 0.0 0.00 0.00 0.00 86 1015.4
20260506190914 13 181 0.0 0.0 0.00 0.00 0.00 87 1015.4
20260506190410 13 187 0.0 0.0 0.00 0.00 0.00 86 1015.2
20260506185907 13 178 0.0 0.0 0.00 0.00 0.00 86 1015.0
20260506185404 13 169 0.0 0.0 0.00 0.00 0.00 86 1014.7
20260506184901 13 174 0.0 0.0 0.00 0.00 0.00 86 1014.8
20260506184358 13 171 0.0 0.0 0.00 0.00 0.00 86 1014.9
20260506183855 13 183 0.0 0.0 0.00 0.00 0.00 87 1015.0
20260506183350 13 160 0.0 0.0 0.00 0.00 0.00 85 1014.5
20260506182848 13 186 0.0 0.0 0.00 0.00 0.00 87 1014.8
20260506182345 13 192 0.0 0.0 0.00 0.00 0.00 86 1014.7
20260506181842 13 189 0.0 0.0 0.00 0.00 0.00 87 1014.2
20260506181340 13 185 0.0 0.0 0.00 0.00 0.00 86 1013.6
20260506180837 13 176 0.0 0.0 0.00 0.00 0.00 87 1013.5
20260506180333 13 199 0.0 1.6 0.00 0.00 0.00 88 1013.3
20260506175829 13 191 0.0 0.0 0.00 0.00 0.00 89 1013.4
20260506175326 13 205 0.0 0.0 0.00 0.00 0.00 88 1013.3
20260506174823 13 173 0.0 0.0 0.00 0.00 0.00 88 1013.7
20260506174321 13 187 0.0 0.0 0.00 0.00 0.00 89 1014.0
20260506173818 13 192 0.0 0.0 0.00 0.00 0.00 89 1014.3
20260506173315 13 118 0.0 3.2 0.00 0.00 0.00 90 1014.0
20260506172812 13 177 0.0 0.0 0.00 0.00 0.00 91 1014.4
20260506172308 13 216 0.0 0.0 0.00 0.00 0.00 90 1014.7
20260506171806 12 173 0.0 0.0 0.00 0.00 0.00 90 1015.0
20260506171303 12 188 0.0 0.0 0.00 0.00 0.00 92 1015.0
20260506170801 12 187 0.0 0.0 0.00 0.00 0.00 91 1014.7
20260506170257 12 183 0.0 0.0 0.00 0.00 0.00 92 1015.1
20260506165755 12 177 0.0 0.0 0.00 0.00 0.00 91 1014.8
20260506165252 12 189 0.0 0.0 0.00 0.00 0.00 90 1014.3
20260506164749 12 203 0.0 0.0 0.00 0.00 0.00 90 1014.0
20260506164246 13 199 0.0 0.0 0.00 0.00 0.00 90 1014.6
20260506163743 13 103 0.0 0.0 0.00 0.00 0.00 90 1014.5
20260506163238 13 192 0.0 0.0 0.00 0.00 0.00 90 1014.4
20260506162734 13 194 0.0 0.0 0.00 0.00 0.00 90 1014.6
20260506162232 13 184 0.0 0.0 0.00 0.00 0.00 90 1014.9
20260506161729 13 169 0.0 0.0 0.00 0.00 0.00 91 1014.8
20260506161226 12 181 0.0 0.0 0.00 0.00 0.00 92 1015.0
20260506160724 12 14 0.0 0.0 0.00 0.00 0.00 92 1015.1
20260506160220 12 138 0.0 0.0 0.00 0.00 0.00 92 1015.1
20260506155719 12 168 0.0 0.0 0.00 0.00 0.00 92 1015.2
20260506155216 12 183 0.0 0.0 0.00 0.00 0.00 93 1015.1
20260506153324 12 181 0.0 0.0 0.00 0.00 0.00 91 1014.8
20260506152821 12 98 1.6 1.6 0.00 0.00 0.00 89 1014.8
20260506152318 12 206 0.0 0.0 0.00 0.00 0.00 85 1015.9
20260506151817 12 189 0.0 0.0 0.00 0.00 0.00 85 1016.4
20260506151313 13 176 1.6 1.6 0.00 0.00 0.00 85 1016.4
20260506150810 13 188 0.0 0.0 0.00 0.00 0.00 85 1015.9
20260506150307 13 188 0.0 0.0 0.00 0.00 0.00 85 1015.6
20260506145804 13 189 0.0 0.0 0.00 0.00 0.00 85 1015.2
20260506145300 12 192 0.0 0.0 0.00 0.00 0.00 86 1015.0
20260506144758 12 192 0.0 0.0 0.00 0.00 0.00 85 1015.1
20260506144254 12 177 1.6 1.6 0.00 0.00 0.00 84 1014.3
20260506143752 12 186 0.0 0.0 0.00 0.00 0.00 85 1014.7
20260506143249 12 179 0.0 0.0 0.00 0.00 0.00 84 1014.6
20260506142748 12 181 0.0 0.0 0.00 0.00 0.00 84 1014.9
20260506142245 12 175 0.0 0.0 0.00 0.00 0.00 84 1014.4
20260506141743 12 176 0.0 0.0 0.00 0.00 0.00 84 1014.6
20260506141241 12 193 0.0 0.0 0.00 0.00 0.00 84 1014.5
20260506140738 12 140 0.0 1.6 0.00 0.00 0.00 84 1014.5
20260506140235 12 191 0.0 0.0 0.00 0.00 0.00 84 1014.6
20260506135732 12 200 0.0 0.0 0.00 0.00 0.00 84 1014.2
20260506135228 12 189 0.0 0.0 0.00 0.00 0.00 84 1014.1
20260506134725 12 188 0.0 0.0 0.00 0.00 0.00 84 1013.9
20260506134222 12 174 3.2 3.2 0.00 0.00 0.00 83 1014.2
20260506133719 13 189 0.0 0.0 0.00 0.00 0.00 83 1014.1
20260506133215 13 188 0.0 0.0 0.00 0.00 0.00 83 1014.1
20260506132713 12 192 0.0 0.0 0.00 0.00 0.00 83 1014.0
20260506132209 13 198 0.0 0.0 0.00 0.00 0.00 83 1013.9
20260506131708 13 195 0.0 0.0 0.00 0.00 0.00 82 1013.4
20260506131203 13 187 0.0 0.0 0.00 0.00 0.00 83 1013.4
20260506130700 13 176 0.0 0.0 0.00 0.00 0.00 82 1013.4
20260506130157 13 176 0.0 1.6 0.00 0.00 0.00 82 1013.7
20260506125655 13 187 0.0 0.0 0.00 0.00 0.00 81 1013.6
20260506125153 13 190 0.0 0.0 0.00 0.00 0.00 82 1013.6
20260506124650 13 192 0.0 0.0 0.00 0.00 0.00 81 1013.4
20260506124149 13 194 0.0 0.0 0.00 0.00 0.00 81 1013.2
20260506123646 13 187 0.0 0.0 0.00 0.00 0.00 81 1013.0
20260506123144 13 186 0.0 0.0 0.00 0.00 0.00 80 1013.2
20260506122641 13 187 0.0 0.0 0.00 0.00 0.00 81 1013.0
20260506122138 13 206 0.0 0.0 0.00 0.00 0.00 80 1012.9
20260506121636 13 183 0.0 0.0 0.00 0.00 0.00 80 1012.8
20260506121132 13 196 0.0 0.0 0.00 0.00 0.00 80 1012.7
20260506120630 13 173 0.0 0.0 0.00 0.00 0.00 79 1013.1
20260506120127 13 189 1.6 1.6 0.00 0.00 0.00 80 1013.0
20260506115626 13 164 0.0 0.0 0.00 0.00 0.00 79 1012.9
20260506115123 13 197 0.0 0.0 0.00 0.00 0.00 79 1012.7
20260506114620 13 201 0.0 0.0 0.00 0.00 0.00 79 1012.7
20260506114118 13 185 0.0 0.0 0.00 0.00 0.00 80 1012.4
20260506113616 13 189 0.0 0.0 0.00 0.00 0.00 79 1012.3
20260506113113 13 197 0.0 0.0 0.00 0.00 0.00 79 1012.0
20260506112610 14 193 0.0 0.0 0.00 0.00 0.00 78 1012.2
20260506112107 14 192 0.0 0.0 0.00 0.00 0.00 79 1012.1
20260506111605 14 200 0.0 0.0 0.00 0.00 0.00 78 1012.1
20260506111102 14 188 0.0 0.0 0.00 0.00 0.00 78 1012.0
20260506110600 14 189 0.0 0.0 0.00 0.00 0.00 79 1011.8
20260506110057 14 189 0.0 0.0 0.00 0.00 0.00 81 1011.7
20260506105553 14 189 0.0 0.0 0.00 0.00 0.00 78 1011.7
20260506105050 14 188 0.0 0.0 0.00 0.00 0.00 80 1011.7
20260506104548 15 190 0.0 0.0 0.00 0.00 0.00 80 1011.4
20260506104046 15 177 0.0 0.0 0.00 0.00 0.00 79 1011.3
20260506103543 15 189 0.0 1.6 0.00 0.00 0.00 79 1011.2
20260506103039 15 184 0.0 0.0 0.00 0.00 0.00 81 1011.3
20260506102538 15 184 0.0 1.6 0.00 0.00 0.00 79 1011.1
20260506102035 15 172 0.0 0.0 0.00 0.00 0.00 78 1010.9
20260506101531 15 179 0.0 0.0 0.00 0.00 0.00 80 1010.9
20260506101028 15 177 0.0 0.0 0.00 0.00 0.00 79 1010.9
20260506100527 15 193 0.0 0.0 0.00 0.00 0.00 78 1010.5
20260506100025 15 173 0.0 0.0 0.00 0.00 0.00 79 1010.7
20260506095523 15 182 0.0 0.0 0.00 0.00 0.00 80 1010.8
20260506095019 15 183 0.0 0.0 0.00 0.00 0.00 81 1010.7
20260506094517 15 185 0.0 0.0 0.00 0.00 0.00 77 1010.4
20260506094015 15 185 0.0 0.0 0.00 0.00 0.00 76 1010.7
20260506093513 15 185 0.0 0.0 0.00 0.00 0.00 77 1010.8
20260506093010 16 182 0.0 0.0 0.00 0.00 0.00 75 1010.7
20260506092508 16 183 0.0 0.0 0.00 0.00 0.00 75 1010.5
20260506092004 16 181 0.0 0.0 0.00 0.00 0.00 76 1010.6
20260506091503 16 182 0.0 1.6 0.00 0.00 0.00 76 1010.5
20260506090959 16 187 0.0 0.0 0.00 0.00 0.00 77 1010.7
20260506090458 16 184 0.0 0.0 0.00 0.00 0.00 77 1010.5
20260506085953 16 183 0.0 0.0 0.00 0.00 0.00 77 1010.6
20260506085450 16 190 0.0 0.0 0.00 0.00 0.00 76 1010.4
20260506084946 16 193 0.0 0.0 0.00 0.00 0.00 77 1010.4
20260506084443 16 188 0.0 0.0 0.00 0.00 0.00 77 1010.2
20260506083940 16 188 0.0 0.0 0.00 0.00 0.00 78 1010.0
20260506083437 16 188 0.0 0.0 0.00 0.00 0.00 77 1010.1
20260506082934 16 195 0.0 0.0 0.00 0.00 0.00 77 1009.9
20260506082431 16 188 0.0 0.0 0.00 0.00 0.00 77 1009.7
20260506081927 16 186 0.0 0.0 0.00 0.00 0.00 77 1009.6
20260506081425 16 194 0.0 0.0 0.00 0.00 0.00 77 1009.8
20260506080922 16 190 0.0 0.0 0.00 0.00 0.00 77 1009.7
20260506080419 16 195 0.0 0.0 0.00 0.00 0.00 77 1009.7
20260506073403 17 190 0.0 0.0 0.00 0.00 0.00 77 1010.0
20260506072900 17 182 0.0 0.0 0.00 0.00 0.00 77 1010.2
20260506072357 17 191 0.0 0.0 0.00 0.00 0.00 77 1010.1
20260506071855 17 201 0.0 0.0 0.00 0.00 0.00 77 1009.9
20260506071353 17 195 0.0 0.0 0.00 0.00 0.00 77 1010.0
20260506070849 17 180 0.0 0.0 0.00 0.00 0.00 77 1010.0
20260506070347 17 187 0.0 0.0 0.00 0.00 0.00 77 1009.9
20260506062324 17 190 0.0 0.0 0.00 0.00 0.00 78 1009.9
20260506061820 17 194 0.0 0.0 0.00 0.00 0.00 78 1009.9
20260506061317 17 196 0.0 0.0 0.00 0.00 0.00 77 1009.9
20260506060815 17 187 0.0 0.0 0.00 0.00 0.00 77 1010.0
20260506060313 17 145 0.0 0.0 0.00 0.00 0.00 77 1009.9
20260506051244 18 186 0.0 0.0 0.00 0.00 0.00 78 1009.6
20260506050742 19 182 0.0 0.0 0.00 0.00 0.00 78 1009.5
20260506050239 19 180 0.0 1.6 0.00 0.00 0.00 78 1009.5
20260506044730 20 118 0.0 0.0 0.00 0.00 0.00 78 1009.5
20260506044227 20 175 0.0 0.0 0.00 0.00 0.00 77 1009.5
20260506043725 20 170 0.0 1.6 0.00 0.00 0.00 79 1009.6
20260506043222 20 189 0.0 0.0 0.00 0.00 0.00 78 1009.4
20260506042721 20 184 0.0 1.6 0.00 0.00 0.00 79 1009.0
20260506042219 20 162 0.0 0.0 0.00 0.00 0.00 79 1009.1
20260506041717 20 191 0.0 0.0 0.00 0.00 0.00 80 1008.9
20260506041214 21 195 0.0 0.0 0.00 0.00 0.00 80 1008.8